RYR70ED LIEA-LIMC

Flight info

Callsign RYR70ED
Flight time 0h 53m
Altitude 36000
Route GOPAT L978 BEBEV DCT OKBON DCT RAPUR DCT TORTU DCT ANAKI P860 DEVOX
Aircraft B738/M-SABDFGRVYL/LB2

Departure

Time 2026-05-05 15:05
Airport Alghero-Fertilia Airport (LIEA)

Arrival

Time 2026-05-05 15:59
Airport Milan Malpensa International Airport (LIMC)
Time Latitude Longitude Altitude Speed Heading
2026-05-05 14:46 40.62966 8.29387 85 ft 0 kts 115°
2026-05-05 14:57 40.62969 8.29378 85 ft 2 kts 115°
2026-05-05 14:57 40.62975 8.29361 85 ft 1 kts 115°
2026-05-05 14:57 40.62980 8.29349 84 ft 2 kts 95°
2026-05-05 14:57 40.62977 8.29330 84 ft 2 kts 60°
2026-05-05 14:58 40.62968 8.29316 84 ft 0 kts 28°
2026-05-05 14:58 40.62962 8.29313 84 ft 1 kts 22°
2026-05-05 14:58 40.62960 8.29312 84 ft 0 kts 24°
2026-05-05 15:00 40.62962 8.29313 84 ft 2 kts 24°
2026-05-05 15:01 40.63041 8.29359 84 ft 18 kts 24°
2026-05-05 15:01 40.63151 8.29424 86 ft 16 kts 24°
2026-05-05 15:01 40.63249 8.29476 87 ft 14 kts
2026-05-05 15:01 40.63346 8.29463 87 ft 13 kts 351°
2026-05-05 15:02 40.63433 8.29459 87 ft 12 kts 17°
2026-05-05 15:02 40.63510 8.29500 87 ft 11 kts 23°
2026-05-05 15:02 40.63577 8.29540 88 ft 10 kts 24°
2026-05-05 15:02 40.63681 8.29603 89 ft 25 kts 24°
2026-05-05 15:03 40.63845 8.29702 91 ft 25 kts 26°
2026-05-05 15:03 40.63997 8.29794 93 ft 23 kts 24°
2026-05-05 15:03 40.64138 8.29878 95 ft 21 kts 26°
2026-05-05 15:03 40.64266 8.29962 97 ft 21 kts 23°
2026-05-05 15:04 40.64405 8.29963 98 ft 17 kts 312°
2026-05-05 15:04 40.64410 8.29824 97 ft 9 kts 260°
2026-05-05 15:04 40.64366 8.29775 97 ft 7 kts 205°
2026-05-05 15:04 40.64356 8.29769 97 ft 0 kts 204°
2026-05-05 15:05 40.63664 8.29345 88 ft 124 kts 205°
2026-05-05 15:05 40.62712 8.28776 162 ft 172 kts 204°
2026-05-05 15:05 40.61647 8.28156 1076 ft 163 kts 203°
2026-05-05 15:06 40.60531 8.27754 1709 ft 176 kts 187°
2026-05-05 15:06 40.59289 8.27574 2205 ft 186 kts 188°
2026-05-05 15:06 40.57975 8.27300 2632 ft 200 kts 191°
2026-05-05 15:06 40.56536 8.26942 3064 ft 216 kts 191°
2026-05-05 15:07 40.55087 8.26573 3840 ft 214 kts 192°
2026-05-05 15:07 40.53643 8.26205 4586 ft 214 kts 193°
2026-05-05 15:07 40.52177 8.25833 5313 ft 214 kts 193°
2026-05-05 15:07 40.50759 8.25395 6022 ft 213 kts 202°
2026-05-05 15:08 40.49515 8.24404 6721 ft 212 kts 225°
2026-05-05 15:08 40.48671 8.22825 7333 ft 219 kts 243°
2026-05-05 15:08 40.48175 8.20881 7811 ft 235 kts 259°
2026-05-05 15:08 40.48255 8.18677 8318 ft 253 kts 277°
2026-05-05 15:09 40.48641 8.16361 8822 ft 268 kts 281°
2026-05-05 15:09 40.49365 8.14085 9563 ft 278 kts 297°
2026-05-05 15:09 40.50590 8.12093 10347 ft 287 kts 312°
2026-05-05 15:09 40.52316 8.10632 10790 ft 312 kts 334°
2026-05-05 15:10 40.54510 8.09995 11235 ft 334 kts 348°
2026-05-05 15:10 40.56869 8.09687 11664 ft 351 kts 351°
2026-05-05 15:10 40.59366 8.09417 12168 ft 364 kts 351°
2026-05-05 15:10 40.61898 8.09138 12951 ft 368 kts 351°
2026-05-05 15:11 40.64448 8.08841 13749 ft 372 kts 351°
2026-05-05 15:11 40.67035 8.08524 14538 ft 377 kts 351°
2026-05-05 15:11 40.69644 8.08192 15331 ft 382 kts 351°
2026-05-05 15:11 40.72304 8.07849 16146 ft 384 kts 351°
2026-05-05 15:12 40.74966 8.07516 16882 ft 389 kts 352°
2026-05-05 15:12 40.77693 8.07447 17569 ft 398 kts
2026-05-05 15:12 40.80436 8.08131 18353 ft 405 kts 15°
2026-05-05 15:12 40.83005 8.09648 18973 ft 413 kts 26°
2026-05-05 15:13 40.85523 8.11547 19600 ft 419 kts 28°
2026-05-05 15:13 40.88028 8.13561 20251 ft 424 kts 29°
2026-05-05 15:13 40.90554 8.15632 20868 ft 429 kts 30°
2026-05-05 15:13 40.93087 8.17714 21446 ft 434 kts 29°
2026-05-05 15:14 40.95646 8.19810 22014 ft 439 kts 29°
2026-05-05 15:14 40.98232 8.22005 22532 ft 446 kts 31°
2026-05-05 15:14 41.00766 8.24371 23115 ft 450 kts 33°
2026-05-05 15:14 41.03302 8.26872 23712 ft 454 kts 34°
2026-05-05 15:15 41.05799 8.29388 24194 ft 459 kts 34°
2026-05-05 15:15 41.08346 8.31965 24766 ft 462 kts 34°
2026-05-05 15:15 41.10937 8.34583 25246 ft 467 kts 34°
2026-05-05 15:15 41.13497 8.37158 25791 ft 469 kts 34°
2026-05-05 15:16 41.16152 8.39713 26157 ft 475 kts 31°
2026-05-05 15:16 41.18997 8.41955 26687 ft 473 kts 22°
2026-05-05 15:16 41.22053 8.43593 27123 ft 471 kts 12°
2026-05-05 15:16 41.25186 8.44548 27594 ft 467 kts
2026-05-05 15:17 41.28418 8.44993 28009 ft 467 kts 357°
2026-05-05 15:17 41.31685 8.45169 28514 ft 467 kts 354°
2026-05-05 15:17 41.34933 8.45238 29039 ft 467 kts 353°
2026-05-05 15:17 41.38128 8.45158 29696 ft 462 kts 351°
2026-05-05 15:18 41.41323 8.44999 30407 ft 458 kts 349°
2026-05-05 15:18 41.44527 8.44830 30828 ft 461 kts 350°
2026-05-05 15:18 41.47721 8.44691 31449 ft 459 kts 350°
2026-05-05 15:18 41.50881 8.44594 32108 ft 456 kts 351°
2026-05-05 15:19 41.54101 8.44531 32686 ft 455 kts 351°
2026-05-05 15:19 41.57285 8.44492 33073 ft 457 kts 351°
2026-05-05 15:19 41.60494 8.44470 33574 ft 457 kts 351°
2026-05-05 15:19 41.63710 8.44463 34114 ft 455 kts 351°
2026-05-05 15:20 41.66919 8.44465 34573 ft 454 kts 351°
2026-05-05 15:20 41.70125 8.44468 34963 ft 454 kts 351°
2026-05-05 15:20 41.73249 8.44476 35457 ft 451 kts 351°
2026-05-05 15:20 41.76374 8.44485 35835 ft 451 kts 351°
2026-05-05 15:21 41.79534 8.44489 35942 ft 454 kts 351°
2026-05-05 15:21 41.85836 8.44502 35952 ft 449 kts 351°
2026-05-05 15:22 41.92101 8.44513 35954 ft 451 kts 351°
2026-05-05 15:22 41.98359 8.44521 35954 ft 452 kts 351°
2026-05-05 15:23 42.04585 8.44534 35956 ft 449 kts 351°
2026-05-05 15:23 42.10870 8.44544 35951 ft 450 kts 351°
2026-05-05 15:24 42.17146 8.44554 35952 ft 450 kts 351°
2026-05-05 15:24 42.23434 8.44550 35951 ft 453 kts 351°
2026-05-05 15:25 42.29711 8.44419 35950 ft 449 kts 349°
2026-05-05 15:25 42.35955 8.44218 35950 ft 450 kts 349°
2026-05-05 15:26 42.42215 8.44033 35949 ft 453 kts 351°
2026-05-05 15:26 42.48561 8.44910 35951 ft 469 kts
2026-05-05 15:27 42.54727 8.47839 35951 ft 475 kts 15°
2026-05-05 15:27 42.60834 8.51367 35950 ft 476 kts 17°
2026-05-05 15:28 42.66901 8.54922 35951 ft 477 kts 16°
2026-05-05 15:28 42.72988 8.58428 35950 ft 476 kts 15°
2026-05-05 15:29 42.79085 8.61893 35949 ft 475 kts 15°
2026-05-05 15:29 42.85166 8.65326 35947 ft 477 kts 16°
2026-05-05 15:30 42.91289 8.68775 35948 ft 476 kts 16°
2026-05-05 15:30 42.97398 8.72219 35947 ft 478 kts 16°
2026-05-05 15:31 43.03510 8.75678 35943 ft 475 kts 16°
2026-05-05 15:31 43.09611 8.79139 35941 ft 475 kts 16°
2026-05-05 15:32 43.15747 8.82626 35940 ft 476 kts 16°
2026-05-05 15:32 43.21843 8.86099 35939 ft 475 kts 16°
2026-05-05 15:33 43.27947 8.89578 35931 ft 478 kts 16°
2026-05-05 15:33 43.34057 8.93030 35928 ft 473 kts 14°
2026-05-05 15:34 43.40315 8.94981 35926 ft 451 kts 352°
2026-05-05 15:34 43.46450 8.93932 35922 ft 441 kts 340°
2026-05-05 15:35 43.52387 8.92209 35924 ft 437 kts 339°
2026-05-05 15:35 43.58337 8.90417 35925 ft 438 kts 339°
2026-05-05 15:36 43.64259 8.88680 35712 ft 431 kts 339°
2026-05-05 15:36 43.67204 8.87833 35295 ft 427 kts 339°
2026-05-05 15:36 43.70067 8.87012 34896 ft 423 kts 338°
2026-05-05 15:36 43.72946 8.86186 34429 ft 422 kts 338°
2026-05-05 15:37 43.75822 8.85360 33910 ft 420 kts 338°
2026-05-05 15:37 43.78634 8.84551 33423 ft 418 kts 338°
2026-05-05 15:37 43.81471 8.83736 32936 ft 415 kts 338°
2026-05-05 15:37 43.84309 8.82921 32452 ft 413 kts 339°
2026-05-05 15:38 43.87113 8.82116 31975 ft 410 kts 339°
2026-05-05 15:38 43.89887 8.81319 31498 ft 407 kts 339°
2026-05-05 15:38 43.92622 8.80532 31020 ft 405 kts 339°
2026-05-05 15:38 43.95384 8.79734 30546 ft 402 kts 340°
2026-05-05 15:39 43.98095 8.78951 30078 ft 400 kts 340°
2026-05-05 15:39 44.00781 8.78178 29931 ft 391 kts 340°
2026-05-05 15:39 44.03463 8.77406 29933 ft 395 kts 340°
2026-05-05 15:40 44.08904 8.75810 29927 ft 403 kts 340°
2026-05-05 15:40 44.14384 8.74225 29934 ft 402 kts 340°
2026-05-05 15:41 44.19884 8.72819 29934 ft 408 kts 346°
2026-05-05 15:41 44.22713 8.72530 29684 ft 413 kts 351°
2026-05-05 15:41 44.25619 8.72518 29078 ft 418 kts 354°
2026-05-05 15:41 44.28504 8.72649 28403 ft 421 kts 356°
2026-05-05 15:42 44.31441 8.72830 27680 ft 425 kts 356°
2026-05-05 15:42 44.34400 8.73015 26945 ft 427 kts 356°
2026-05-05 15:42 44.37356 8.73189 26227 ft 429 kts 356°
2026-05-05 15:42 44.40362 8.73355 25502 ft 430 kts 356°
2026-05-05 15:43 44.43312 8.73507 24792 ft 431 kts 356°
2026-05-05 15:43 44.46313 8.73653 24070 ft 432 kts 356°
2026-05-05 15:43 44.49312 8.73794 23352 ft 432 kts 357°
2026-05-05 15:43 44.52319 8.73931 22638 ft 432 kts 357°
2026-05-05 15:44 44.55288 8.74064 21931 ft 432 kts 357°
2026-05-05 15:44 44.58303 8.74198 21217 ft 432 kts 358°
2026-05-05 15:44 44.61275 8.74330 20511 ft 431 kts 358°
2026-05-05 15:44 44.64268 8.74462 19807 ft 430 kts 358°
2026-05-05 15:45 44.67228 8.74484 19105 ft 427 kts 354°
2026-05-05 15:45 44.70163 8.74101 18403 ft 421 kts 346°
2026-05-05 15:45 44.72964 8.73158 17710 ft 416 kts 339°
2026-05-05 15:45 44.75690 8.71894 17019 ft 413 kts 336°
2026-05-05 15:46 44.78374 8.70480 16319 ft 410 kts 335°
2026-05-05 15:46 44.81012 8.69027 15623 ft 407 kts 335°
2026-05-05 15:46 44.83642 8.67577 14931 ft 405 kts 335°
2026-05-05 15:46 44.86239 8.66168 14248 ft 402 kts 335°
2026-05-05 15:47 44.88826 8.64789 13678 ft 397 kts 336°
2026-05-05 15:47 44.90540 8.63887 13332 ft 389 kts 336°
2026-05-05 15:47 44.93843 8.62167 12737 ft 369 kts 336°
2026-05-05 15:47 44.96183 8.60952 12294 ft 355 kts 336°
2026-05-05 15:48 44.98464 8.59767 11846 ft 343 kts 337°
2026-05-05 15:48 45.00708 8.58733 11364 ft 334 kts 342°
2026-05-05 15:48 45.02947 8.57991 10888 ft 327 kts 346°
2026-05-05 15:48 45.05142 8.57397 10538 ft 319 kts 348°
2026-05-05 15:49 45.07295 8.56847 10166 ft 310 kts 348°
2026-05-05 15:49 45.09381 8.56307 9798 ft 307 kts 348°
2026-05-05 15:49 45.11493 8.56062 9420 ft 306 kts
2026-05-05 15:49 45.13487 8.57049 9033 ft 302 kts 31°
2026-05-05 15:50 45.15200 8.58681 8583 ft 297 kts 37°
2026-05-05 15:50 45.16848 8.60416 8083 ft 294 kts 37°
2026-05-05 15:50 45.18489 8.62116 7591 ft 291 kts 37°
2026-05-05 15:50 45.20131 8.63758 7226 ft 289 kts 36°
2026-05-05 15:51 45.21768 8.65356 6850 ft 287 kts 36°
2026-05-05 15:51 45.23407 8.66935 6472 ft 282 kts 35°
2026-05-05 15:51 45.25022 8.68481 6101 ft 275 kts 35°
2026-05-05 15:51 45.26584 8.69973 5793 ft 267 kts 35°
2026-05-05 15:52 45.28106 8.71419 5470 ft 262 kts 35°
2026-05-05 15:52 45.29607 8.72851 5116 ft 257 kts 35°
2026-05-05 15:52 45.31066 8.74248 4759 ft 253 kts 35°
2026-05-05 15:52 45.32518 8.75644 4382 ft 250 kts 35°
2026-05-05 15:53 45.33945 8.77018 4039 ft 246 kts 35°
2026-05-05 15:53 45.35310 8.78334 3957 ft 230 kts 35°
2026-05-05 15:53 45.36628 8.79477 3965 ft 215 kts 26°
2026-05-05 15:53 45.38040 8.79902 3970 ft 210 kts 356°
2026-05-05 15:54 45.39502 8.79608 3971 ft 214 kts 352°
2026-05-05 15:54 45.40987 8.79321 3967 ft 214 kts 352°
2026-05-05 15:54 45.42445 8.78984 3967 ft 215 kts 350°
2026-05-05 15:54 45.43898 8.78592 3965 ft 206 kts 349°
2026-05-05 15:55 45.45283 8.78210 3971 ft 199 kts 350°
2026-05-05 15:55 45.46678 8.77832 3762 ft 207 kts 350°
2026-05-05 15:55 45.48083 8.77449 3442 ft 207 kts 350°
2026-05-05 15:55 45.49497 8.77062 3156 ft 204 kts 350°
2026-05-05 15:56 45.50871 8.76685 2890 ft 200 kts 349°
2026-05-05 15:56 45.52217 8.76316 2604 ft 197 kts 350°
2026-05-05 15:56 45.53513 8.75962 2342 ft 183 kts 349°
2026-05-05 15:56 45.54720 8.75631 2103 ft 173 kts 349°
2026-05-05 15:57 45.55892 8.75309 1869 ft 169 kts 349°
2026-05-05 15:57 45.57016 8.74999 1651 ft 159 kts 350°
2026-05-05 15:57 45.58107 8.74701 1429 ft 163 kts 350°
2026-05-05 15:57 45.59181 8.74406 1215 ft 150 kts 349°
2026-05-05 15:58 45.60204 8.74119 1037 ft 149 kts 349°
2026-05-05 15:58 45.61208 8.73849 820 ft 143 kts 349°
2026-05-05 15:58 45.62164 8.73580 715 ft 133 kts 351°
2026-05-05 15:58 45.62895 8.73387 721 ft 76 kts 351°
2026-05-05 15:59 45.63179 8.73214 729 ft 28 kts 316°
2026-05-05 15:59 45.63280 8.73033 732 ft 19 kts 307°
2026-05-05 15:59 45.63336 8.72914 735 ft 9 kts 303°
2026-05-05 15:59 45.63354 8.72875 736 ft 0 kts 304°
2026-05-05 16:00 45.63347 8.72891 736 ft 2 kts 304°
2026-05-05 16:00 45.63365 8.72851 737 ft 15 kts 304°
2026-05-05 16:00 45.63405 8.72704 739 ft 15 kts 278°
2026-05-05 16:00 45.63398 8.72542 741 ft 19 kts 260°
2026-05-05 16:01 45.63368 8.72325 744 ft 23 kts 259°
2026-05-05 16:01 45.63340 8.72115 747 ft 17 kts 258°
2026-05-05 16:01 45.63293 8.71982 749 ft 14 kts 205°
2026-05-05 16:01 45.63188 8.71991 747 ft 15 kts 170°
2026-05-05 16:02 45.63078 8.72022 744 ft 16 kts 167°
2026-05-05 16:02 45.62958 8.72057 741 ft 18 kts 170°
2026-05-05 16:02 45.62837 8.72088 738 ft 17 kts 171°
2026-05-05 16:02 45.62698 8.72123 735 ft 24 kts 170°
2026-05-05 16:03 45.62531 8.72176 733 ft 23 kts 169°
2026-05-05 16:03 45.62388 8.72184 733 ft 14 kts 218°
2026-05-05 16:03 45.62367 8.72114 734 ft 5 kts 258°
2026-05-05 16:03 45.62358 8.72042 736 ft 11 kts 261°
2026-05-05 16:04 45.62337 8.71885 737 ft 19 kts 258°
2026-05-05 16:04 45.62312 8.71720 738 ft 14 kts 258°
2026-05-05 16:04 45.62338 8.71659 740 ft 5 kts 345°
2026-05-05 16:04 45.62379 8.71646 741 ft 3 kts 349°